Volver al catálogo

SL-8 R/B

ActivoLEO
NORAD 7443·ROCKET BODY·🇷🇺 Russia

Lanzado Sep 19, 1974 desde Plesetsk Cosmodrome

Loading…

Próximos Pases (próximas 24 horas)

TLE

ActualizadoSource: Space-Track

Época: Sep 14, 2026, 08:17 UTC

1 07443U 74072J   26257.34567738  .00000026  00000-0  36354-3 0  9995
2 07443  74.0388  16.2092 0131271 136.0956 252.1475 12.22828919320729

Sigue SL-8 R/B en tiempo real con AllMySat

Download on the App Store